• în Republica Moldova
  • Lista ţărilor
  • Pe 7 zile
  • Temperatura apei
  • Hartă satelitară
  • Meteo pe hartă
  • Widget-uri
  • user-avatar
    Intrare

    Meteo pe oră la Panovo

    Astăzi, 17 August, Vineri

    Timp Temperatura Precipitaţii Vânt Presiune Umiditate
    00:00 +14°C° 0 mm 1 m/s 749 mmHg 93%
    01:00 +14°C° 0 mm 1 m/s 749 mmHg 94%
    02:00 +13°C° 0 mm 1 m/s 749 mmHg 96%
    03:00 +13°C° 0 mm 1 m/s 749 mmHg 96%
    04:00 +13°C° 0 mm 1 m/s 750 mmHg 96%
    05:00 +12°C° 0 mm 1 m/s 750 mmHg 97%
    06:00 +14°C° 0 mm 1 m/s 750 mmHg 90%
    07:00 +16°C° 0 mm 1 m/s 750 mmHg 84%
    08:00 +18°C° 0 mm 2 m/s 750 mmHg 75%
    09:00 +19°C° 0 mm 2 m/s 750 mmHg 69%
    10:00 +21°C° 0 mm 2 m/s 750 mmHg 64%
    11:00 +23°C° 0 mm 2 m/s 750 mmHg 58%
    12:00 +24°C° 0 mm 2 m/s 750 mmHg 56%
    13:00 +25°C° 0 mm 2 m/s 749 mmHg 53%
    14:00 +25°C° 0 mm 2 m/s 749 mmHg 51%
    15:00 +25°C° 0 mm 2 m/s 749 mmHg 54%
    16:00 +25°C° 0 mm 2 m/s 749 mmHg 57%
    17:00 +25°C° 0 mm 1 m/s 748 mmHg 60%
    18:00 +23°C° 0 mm 1 m/s 748 mmHg 66%
    19:00 +21°C° 0 mm 1 m/s 748 mmHg 73%
    20:00 +19°C° 0 mm 1 m/s 748 mmHg 79%
    21:00 +18°C° 0 mm 1 m/s 748 mmHg 83%
    22:00 +18°C° 0 mm 1 m/s 748 mmHg 86%
    23:00 +16°C° 0 mm 2 m/s 748 mmHg 89%

    Mâine, 18 August, Sâmbătă

    Timp Temperatura Precipitaţii Vânt Presiune Umiditate
    00:00 +16°C° 0 mm 2 m/s 748 mmHg 91%
    01:00 +15°C° 0 mm 2 m/s 748 mmHg 94%
    02:00 +15°C° 0 mm 2 m/s 748 mmHg 96%
    03:00 +15°C° 0 mm 2 m/s 748 mmHg 96%
    04:00 +15°C° 0 mm 2 m/s 748 mmHg 97%
    05:00 +14°C° 0 mm 2 m/s 748 mmHg 97%
    06:00 +16°C° 0 mm 2 m/s 748 mmHg 91%
    07:00 +18°C° 0 mm 2 m/s 749 mmHg 84%
    08:00 +19°C° 0 mm 2 m/s 749 mmHg 77%
    09:00 +21°C° 0,1 mm 2 m/s 748 mmHg 72%
    10:00 +24°C° 0,1 mm 3 m/s 748 mmHg 67%
    11:00 +25°C° 0,1 mm 3 m/s 748 mmHg 61%
    12:00 +26°C° 0,3 mm 3 m/s 748 mmHg 62%
    13:00 +26°C° 0,3 mm 3 m/s 748 mmHg 63%
    14:00 +26°C° 0,3 mm 3 m/s 747 mmHg 64%
    15:00 +25°C° 0,3 mm 3 m/s 747 mmHg 69%
    16:00 +25°C° 0,3 mm 3 m/s 747 mmHg 73%
    17:00 +24°C° 0,3 mm 2 m/s 747 mmHg 78%
    18:00 +23°C° 0 mm 2 m/s 747 mmHg 83%
    19:00 +20°C° 0 mm 2 m/s 747 mmHg 88%
    20:00 +19°C° 0 mm 2 m/s 747 mmHg 93%
    21:00 +18°C° 0 mm 2 m/s 747 mmHg 94%
    22:00 +18°C° 0 mm 2 m/s 747 mmHg 95%
    23:00 +18°C° 0 mm 2 m/s 747 mmHg 96%

    Poimâine, 19 August, Duminică

    Timp Temperatura Precipitaţii Vânt Presiune Umiditate
    00:00 +17°C° 0 mm 2 m/s 746 mmHg 96%
    01:00 +17°C° 0 mm 2 m/s 746 mmHg 97%
    02:00 +17°C° 0 mm 2 m/s 746 mmHg 97%
    03:00 +16°C° 0 mm 2 m/s 746 mmHg 97%
    04:00 +16°C° 0 mm 2 m/s 746 mmHg 98%
    05:00 +16°C° 0 mm 2 m/s 746 mmHg 98%
    06:00 +17°C° 0 mm 2 m/s 746 mmHg 94%
    07:00 +19°C° 0 mm 2 m/s 746 mmHg 90%
    08:00 +20°C° 0 mm 2 m/s 746 mmHg 86%
    09:00 +21°C° 0,3 mm 2 m/s 746 mmHg 82%
    10:00 +22°C° 0,3 mm 3 m/s 746 mmHg 77%
    11:00 +24°C° 0,3 mm 3 m/s 746 mmHg 73%
    12:00 +25°C° 0,5 mm 3 m/s 745 mmHg 68%
    13:00 +25°C° 0,5 mm 3 m/s 745 mmHg 62%
    14:00 +25°C° 0,5 mm 3 m/s 745 mmHg 57%
    15:00 +25°C° 0,1 mm 3 m/s 745 mmHg 56%
    16:00 +25°C° 0,1 mm 3 m/s 745 mmHg 56%
    17:00 +24°C° 0,1 mm 2 m/s 745 mmHg 55%
    18:00 +23°C° 0 mm 2 m/s 745 mmHg 63%
    19:00 +20°C° 0 mm 2 m/s 745 mmHg 70%
    20:00 +18°C° 0 mm 2 m/s 745 mmHg 77%
    21:00 +18°C° 0 mm 2 m/s 745 mmHg 82%
    22:00 +17°C° 0 mm 2 m/s 745 mmHg 86%
    23:00 +18°C° 0 mm 1 m/s 745 mmHg 90%

    20 August, Luni

    Timp Temperatura Precipitaţii Vânt Presiune Umiditate
    00:00 +17°C° 0 mm 2 m/s 745 mmHg 92%
    01:00 +17°C° 0 mm 2 m/s 745 mmHg 94%
    02:00 +16°C° 0 mm 2 m/s 745 mmHg 96%
    03:00 +16°C° 0 mm 2 m/s 745 mmHg 97%
    04:00 +16°C° 0 mm 2 m/s 745 mmHg 97%
    05:00 +15°C° 0 mm 2 m/s 745 mmHg 98%
    06:00 +16°C° 0 mm 2 m/s 745 mmHg 93%
    07:00 +18°C° 0 mm 2 m/s 745 mmHg 88%
    08:00 +19°C° 0 mm 3 m/s 745 mmHg 82%
    09:00 +20°C° 0 mm 3 m/s 745 mmHg 76%
    10:00 +21°C° 0 mm 3 m/s 745 mmHg 69%
    11:00 +24°C° 0 mm 3 m/s 745 mmHg 63%
    12:00 +24°C° 0,4 mm 3 m/s 745 mmHg 67%
    13:00 +22°C° 0,4 mm 4 m/s 744 mmHg 71%
    14:00 +22°C° 0,4 mm 4 m/s 744 mmHg 75%
    15:00 +22°C° 0,8 mm 3 m/s 744 mmHg 79%
    16:00 +21°C° 0,8 mm 3 m/s 744 mmHg 83%
    17:00 +21°C° 0,8 mm 2 m/s 744 mmHg 87%
    18:00 +20°C° 0,5 mm 2 m/s 744 mmHg 89%
    19:00 +19°C° 0,5 mm 2 m/s 744 mmHg 92%
    20:00 +19°C° 0,5 mm 1 m/s 744 mmHg 95%
    21:00 +18°C° 0,1 mm 1 m/s 744 mmHg 96%
    22:00 +18°C° 0,1 mm 1 m/s 744 mmHg 96%
    23:00 +18°C° 0,1 mm 1 m/s 744 mmHg 97%

    21 August, Marţi

    Timp Temperatura Precipitaţii Vânt Presiune Umiditate
    00:00 +17°C° 0,1 mm 2 m/s 744 mmHg 97%
    01:00 +16°C° 0,1 mm 2 m/s 743 mmHg 98%
    02:00 +16°C° 0,1 mm 2 m/s 743 mmHg 98%
    03:00 +16°C° 0,1 mm 2 m/s 743 mmHg 98%
    04:00 +16°C° 0,1 mm 2 m/s 743 mmHg 98%
    05:00 +16°C° 0,1 mm 2 m/s 743 mmHg 98%
    06:00 +16°C° 0,1 mm 2 m/s 743 mmHg 96%
    07:00 +17°C° 0,1 mm 2 m/s 743 mmHg 95%
    08:00 +18°C° 0,1 mm 2 m/s 744 mmHg 93%
    09:00 +19°C° 0,1 mm 2 m/s 743 mmHg 88%
    10:00 +20°C° 0,1 mm 2 m/s 743 mmHg 82%
    11:00 +21°C° 0,1 mm 2 m/s 743 mmHg 77%
    12:00 +21°C° 0,6 mm 2 m/s 743 mmHg 77%
    13:00 +21°C° 0,6 mm 2 m/s 743 mmHg 76%
    14:00 +23°C° 0,6 mm 2 m/s 742 mmHg 76%
    15:00 +21°C° 0,7 mm 2 m/s 742 mmHg 78%
    16:00 +22°C° 0,7 mm 1 m/s 742 mmHg 80%
    17:00 +21°C° 0,7 mm 1 m/s 742 mmHg 82%
    18:00 +20°C° 0,4 mm 1 m/s 742 mmHg 85%
    19:00 +19°C° 0,4 mm 1 m/s 741 mmHg 89%
    20:00 +18°C° 0,4 mm 1 m/s 741 mmHg 93%
    21:00 +18°C° 0,1 mm 1 m/s 741 mmHg 94%
    22:00 +18°C° 0,1 mm 1 m/s 741 mmHg 95%
    23:00 +16°C° 0,1 mm 1 m/s 741 mmHg 97%

    22 August, Miercuri

    Timp Temperatura Precipitaţii Vânt Presiune Umiditate
    00:00 +16°C° 0,1 mm 1 m/s 741 mmHg 97%
    01:00 +15°C° 0,1 mm 1 m/s 741 mmHg 97%
    02:00 +15°C° 0,1 mm 1 m/s 742 mmHg 98%
    03:00 +15°C° 0 mm 1 m/s 742 mmHg 98%
    04:00 +15°C° 0 mm 1 m/s 742 mmHg 98%
    05:00 +15°C° 0 mm 1 m/s 742 mmHg 98%
    06:00 +16°C° 0 mm 1 m/s 743 mmHg 96%
    07:00 +16°C° 0 mm 2 m/s 743 mmHg 94%
    08:00 +17°C° 0 mm 2 m/s 743 mmHg 92%
    09:00 +18°C° 0 mm 2 m/s 743 mmHg 84%
    10:00 +19°C° 0 mm 2 m/s 743 mmHg 77%
    11:00 +20°C° 0 mm 2 m/s 744 mmHg 69%
    12:00 +21°C° 0 mm 3 m/s 743 mmHg 65%
    13:00 +22°C° 0 mm 3 m/s 743 mmHg 61%
    14:00 +24°C° 0 mm 3 m/s 743 mmHg 56%
    15:00 +24°C° 0 mm 3 m/s 743 mmHg 57%
    16:00 +22°C° 0 mm 3 m/s 743 mmHg 58%
    17:00 +22°C° 0 mm 3 m/s 743 mmHg 59%
    18:00 +21°C° 0 mm 3 m/s 742 mmHg 65%
    19:00 +20°C° 0 mm 3 m/s 742 mmHg 71%
    20:00 +18°C° 0 mm 3 m/s 742 mmHg 77%
    21:00 +18°C° 0,1 mm 3 m/s 742 mmHg 80%
    22:00 +18°C° 0,1 mm 3 m/s 742 mmHg 84%
    23:00 +17°C° 0,1 mm 4 m/s 742 mmHg 87%
    Arată mai mult